GFSSW_850_temp_276.txt.gz
Temp
16 16 17 17 17 18 18 18 18 19 19 19 19 20 20 20 21 21 21 22 22 22 22 22 22 23 25 26 28 29 29 29 32 33 27 30 33 32 31 30 30 29 26 24 24
16 16 17 17 18 18 18 18 19 19 19 19 20 20 20 21 21 21 22 22 22 23 23 23 24 24 25 27 28 30 29 30 33 34 33 33 33 32 31 31 30 28 26 25 24
16 17 17 17 18 18 18 19 19 19 19 19 20 20 20 21 20 24 23 23 23 23 24 24 26 26 27 28 29 30 29 32 33 34 34 32 33 30 31 31 26 27 25 25 25
16 17 17 17 18 18 19 19 19 19 20 20 20 21 21 20 26 24 24 23 23 24 23 25 27 28 29 29 30 30 31 31 32 33 33 34 33 33 32 26 23 21 25 25 25
16 16 17 17 18 18 19 19 19 19 20 20 20 21 21 20 24 24 24 24 24 23 23 25 27 28 29 30 31 31 32 31 32 32 32 32 33 32 32 24 23 20 25 26 26
16 17 17 18 18 19 19 19 19 19 20 20 20 20 20 22 25 23 24 24 23 23 25 26 27 28 29 30 31 31 31 32 32 32 32 32 32 32 32 27 20 23 25 26 26
16 17 17 18 19 19 19 19 19 19 19 20 20 20 18 24 24 24 23 23 25 25 26 27 28 28 29 29 30 31 31 32 32 32 32 32 31 31 32 32 30 28 27 26 26
16 17 18 18 19 20 20 19 19 19 19 20 20 20 22 24 24 24 24 25 25 25 25 26 27 27 28 29 30 30 30 29 32 32 32 32 30 32 32 32 30 29 28 27 27
16 17 18 19 20 20 20 20 20 20 20 20 20 21 25 24 24 24 25 25 25 25 25 25 26 27 28 28 29 30 28 29 31 33 32 31 30 32 32 32 31 21 22 28 26
17 18 19 20 20 20 20 20 21 21 20 20 20 21 24 26 25 25 25 25 25 26 26 25 26 27 29 29 27 30 29 31 31 33 32 31 31 32 32 33 31 30 29 28 27
18 18 19 20 20 20 21 21 20 19 19 24 25 26 26 26 24 24 25 25 26 26 27 27 27 28 29 30 31 30 30 30 32 33 32 31 31 32 32 32 31 30 29 29 28
18 18 19 20 20 20 21 21 21 22 23 25 25 25 25 26 26 26 25 26 26 27 28 29 27 30 31 30 29 29 29 29 31 32 31 30 30 31 32 32 31 30 30 29 27
18 18 19 20 20 20 21 21 21 21 23 26 26 27 26 25 27 27 26 26 28 28 29 28 30 30 29 29 28 29 28 29 30 31 31 30 29 30 32 32 30 30 30 29 27
17 18 19 20 20 22 22 21 21 21 23 27 27 27 25 26 27 28 27 27 28 28 29 29 30 29 28 28 29 28 30 30 29 29 28 31 27 30 31 31 31 30 30 30 29
18 19 19 20 21 22 21 21 21 21 23 28 28 27 27 28 28 27 27 27 27 28 29 29 29 28 28 29 30 28 30 29 29 29 28 29 28 30 31 30 31 31 30 30 30
18 18 19 19 19 21 21 21 21 23 24 27 28 28 28 28 28 28 27 27 28 28 29 29 30 30 29 30 29 29 29 28 28 28 26 28 28 29 31 31 31 32 32 31 30
18 18 19 19 20 21 21 22 23 24 28 27 28 28 29 28 28 29 27 27 26 26 27 28 29 30 29 28 29 29 27 25 26 26 26 29 29 29 32 33 32 32 31 32 27
18 18 19 19 19 20 20 23 22 28 27 28 28 28 27 28 28 28 28 27 28 27 26 26 25 26 30 28 28 28 28 26 25 26 26 29 28 29 32 33 32 32 32 28 27
18 18 18 19 19 19 21 23 26 27 28 27 28 26 27 27 27 27 28 25 25 27 25 25 22 28 29 29 29 28 27 28 27 28 27 29 27 29 30 31 30 32 31 28 20
18 17 20 20 19 19 22 22 25 26 26 26 25 27 26 27 26 27 27 27 26 26 26 26 24 28 28 29 29 28 29 26 27 23 24 27 28 26 26 25 26 28 29 22 21
17 20 20 20 20 21 22 25 27 25 24 25 25 26 26 26 26 27 27 25 25 25 25 25 25 25 27 27 27 26 20 17 25 24 23 23 26 25 22 27 25 24 21 20 21
16 22 20 20 21 23 24 25 23 24 23 24 24 25 25 25 25 25 26 23 23 23 24 25 23 22 24 27 28 27 26 26 24 23 20 15 16 23 24 22 23 22 23 19 19
16 20 21 20 22 24 25 24 23 24 23 24 23 24 25 24 23 24 25 22 22 23 21 21 23 22 23 26 27 26 26 24 26 24 23 23 24 29 25 26 24 23 23 21 18
15 21 22 21 22 21 22 23 23 21 22 22 23 23 23 22 24 23 24 23 21 22 19 19 20 21 21 23 24 24 18 15 24 23 23 24 25 27 27 27 26 23 23 23 23
16 20 17 21 21 20 21 22 22 22 21 21 21 22 22 21 22 23 23 23 22 19 20 20 19 21 22 23 24 24 24 24 24 24 23 24 25 26 26 26 26 23 22 22 22
15 15 15 18 19 19 16 20 21 22 22 21 20 21 22 20 21 21 21 22 22 21 21 21 18 19 20 22 23 22 23 24 24 24 24 24 24 27 27 26 23 22 21 21 20
12 13 14 17 19 19 20 20 20 20 20 20 19 19 20 19 17 17 17 17 18 18 19 19 19 18 18 21 22 21 23 23 24 25 24 24 25 27 25 23 21 20 19 19 18

GFSSW_850_temp_279.txt.gz
Temp
17 17 17 17 18 18 18 19 19 19 19 19 19 20 20 20 21 21 22 23 22 22 22 23 22 24 24 24 25 27 22 22 24 26 28 31 28 27 28 27 27 26 23 22 22
17 17 17 17 18 18 18 19 19 19 19 19 19 20 20 20 21 22 24 23 22 22 23 23 23 23 24 25 26 25 21 23 27 28 28 31 30 29 29 24 21 24 23 23 23
17 17 17 17 18 18 18 19 19 19 19 19 20 20 20 20 20 23 24 23 23 23 23 23 23 25 24 25 26 26 23 26 28 30 30 31 30 30 22 20 21 23 23 24 24
16 17 17 17 18 18 19 19 19 19 19 20 20 20 20 20 21 24 24 24 23 24 23 24 25 25 24 22 27 24 27 28 29 30 30 30 31 29 26 22 24 24 24 24 24
16 17 17 18 18 19 19 19 19 19 19 19 20 20 20 19 22 24 24 24 24 24 24 24 25 26 24 25 27 25 25 29 30 31 31 32 31 26 20 23 25 24 24 24 24
17 17 17 18 19 19 19 19 19 19 19 20 20 20 19 19 24 24 24 24 24 24 25 25 26 27 27 26 25 28 28 29 31 31 30 29 31 30 21 22 23 25 24 24 24
17 17 18 19 19 19 20 19 19 19 19 20 20 20 20 23 24 24 23 24 24 25 25 25 26 27 27 25 29 29 25 25 27 30 28 31 29 29 24 21 21 21 23 23 24
17 17 18 19 19 20 20 20 19 19 20 20 20 20 22 24 24 24 24 24 25 25 25 25 26 26 26 27 27 25 26 23 24 28 30 29 25 28 24 21 19 18 19 20 21
17 18 18 19 20 20 20 20 20 20 20 19 19 19 20 24 24 24 24 25 25 25 25 25 25 26 26 23 21 23 22 23 24 27 27 26 26 28 27 20 18 15 16 20 23
17 18 19 20 20 20 20 21 21 20 20 20 19 17 23 24 25 25 25 25 25 25 26 25 25 22 21 21 20 22 23 23 24 27 27 26 26 27 31 31 19 17 19 21 22
17 18 19 20 20 20 21 21 21 20 19 21 23 25 26 26 25 25 25 25 25 26 23 25 21 20 21 23 25 25 25 25 26 28 28 25 28 27 29 28 20 22 24 20 20
17 18 19 20 20 21 21 21 21 21 21 23 24 25 26 26 26 25 25 25 25 23 24 23 21 24 26 27 27 26 25 24 26 28 29 28 27 27 27 28 24 23 20 21 19
17 19 19 20 20 21 21 21 21 22 21 24 25 26 26 25 26 26 25 25 25 23 24 23 25 28 28 26 26 25 25 24 24 26 26 28 25 25 26 29 30 28 27 19 20
18 18 19 20 20 21 21 21 22 21 18 25 26 27 25 25 26 27 26 26 26 24 25 25 28 28 27 27 26 24 26 27 27 25 22 26 21 23 25 25 26 29 29 21 18
18 18 19 20 21 21 21 22 21 21 18 27 27 27 26 26 27 27 27 27 24 25 25 24 26 28 27 26 27 25 27 26 26 23 22 23 21 22 24 25 25 24 29 29 25
17 18 19 19 20 21 21 21 21 18 20 27 28 27 26 27 28 27 27 27 27 25 26 25 29 28 28 28 27 28 26 23 23 22 20 22 22 24 24 25 26 26 28 30 24
18 19 19 19 20 20 20 21 18 19 28 26 27 28 26 27 27 27 26 25 23 23 23 24 27 26 28 27 26 27 24 19 19 19 20 23 23 22 25 22 23 25 26 23 27
18 19 19 20 20 20 20 18 19 24 26 28 27 28 27 28 27 28 26 23 24 25 22 22 21 24 28 27 26 25 23 19 20 20 22 26 24 23 23 21 21 21 20 20 17
18 19 20 20 19 19 19 17 20 25 26 27 27 26 25 27 27 26 25 24 25 24 22 21 22 23 26 27 27 24 21 25 22 21 20 22 21 23 21 22 21 20 20 20 20
18 19 20 20 20 19 17 18 21 24 26 26 24 25 24 25 25 25 25 25 25 25 23 23 20 24 24 27 27 25 21 19 17 19 18 20 18 19 19 19 21 19 19 16 18
18 18 20 20 20 20 16 20 23 24 24 24 23 23 24 24 26 25 24 23 24 24 24 22 20 21 23 23 22 21 20 15 15 18 18 18 18 17 20 19 20 20 19 20 20
17 16 20 20 19 20 18 22 23 24 24 24 24 23 22 23 22 24 22 21 23 24 21 18 19 18 21 23 24 23 23 18 15 19 16 16 15 21 19 20 22 22 23 20 19
14 16 20 20 16 17 21 23 24 24 23 23 23 23 23 22 21 23 23 22 22 20 18 18 17 17 18 20 21 22 22 18 15 16 19 18 17 19 21 21 22 22 20 20 19
12 15 19 20 20 19 19 20 22 22 22 22 21 21 21 22 21 22 22 22 22 18 19 19 17 17 16 17 19 19 21 18 14 14 17 19 20 20 22 21 20 22 21 19 18
13 16 16 15 17 17 18 18 20 21 22 22 21 20 20 20 19 19 20 21 21 19 19 16 16 18 18 20 20 20 21 21 18 17 18 20 20 21 20 20 20 21 20 19 18
13 13 13 14 17 18 17 18 19 20 21 20 19 20 19 18 15 15 15 15 15 18 18 16 15 17 16 19 19 19 20 20 20 21 20 20 20 21 22 19 17 18 18 18 18
10 12 13 14 15 16 16 18 19 20 20 19 17 17 15 15 15 16 16 17 17 16 14 15 15 15 15 18 18 16 19 20 20 20 20 19 20 18 16 16 16 17 17 17 16

GFSSW_850_temp_285.txt.gz
Temp
16 16 17 17 17 17 18 18 18 19 19 19 20 20 20 21 21 22 23 23 22 22 22 21 21 22 22 23 23 23 17 16 21 22 24 24 22 23 22 24 23 22 22 21 20
16 16 17 17 17 18 18 18 19 19 19 20 20 20 20 21 22 23 23 23 22 22 22 21 21 21 22 23 23 20 15 18 20 22 22 25 25 22 22 22 20 22 22 21 19
16 16 17 17 17 18 18 18 19 19 19 19 20 20 20 21 22 23 23 23 23 22 22 22 22 22 22 22 23 20 19 20 23 25 24 24 23 23 22 21 22 22 21 20 19
16 16 17 17 18 18 18 19 19 19 19 19 20 20 20 21 22 23 23 23 23 23 22 22 22 22 20 21 23 22 23 23 25 26 25 23 24 22 24 25 29 23 22 20 19
16 17 17 18 18 18 19 19 19 19 19 19 20 20 21 21 23 24 24 23 23 23 23 23 23 22 21 21 22 21 22 24 26 26 25 25 23 22 23 25 23 22 22 19 20
16 17 17 18 18 18 19 19 19 19 19 19 19 20 20 19 23 23 23 23 23 23 23 24 24 24 22 22 22 23 23 24 25 26 25 23 23 23 23 23 23 22 21 20 21
16 17 17 18 18 19 19 19 19 19 19 19 19 20 20 23 23 23 23 23 23 24 24 24 24 24 24 22 24 23 22 21 23 25 25 25 21 21 23 22 22 21 21 21 21
16 17 17 18 19 20 20 20 20 19 19 19 20 20 22 23 23 24 24 24 24 24 24 24 24 24 24 24 23 21 19 20 22 24 25 25 23 21 21 22 21 21 21 22 22
16 17 18 19 20 20 20 20 20 20 20 20 20 19 23 23 24 24 24 24 24 24 24 24 24 24 23 19 18 16 20 21 21 23 24 25 22 19 20 21 20 21 21 22 23
16 17 18 19 20 20 20 20 20 20 20 20 20 19 23 24 24 24 24 24 24 24 24 24 24 17 15 16 19 21 21 20 20 22 23 22 21 18 19 20 20 20 21 22 23
17 17 18 19 20 20 21 20 20 20 21 21 21 21 23 24 24 24 24 24 24 24 21 22 19 18 19 18 20 22 21 20 20 22 24 22 20 17 18 19 19 20 21 22 23
17 18 19 19 20 20 21 21 20 20 20 22 22 22 24 24 23 24 24 24 24 21 21 18 19 20 20 20 20 20 20 19 21 23 23 20 18 16 17 18 19 19 20 22 22
17 18 19 20 20 20 21 20 21 21 19 21 23 24 25 25 24 25 25 24 23 22 21 20 21 22 21 21 22 21 21 22 22 23 22 21 17 18 19 19 19 19 19 20 21
17 18 19 20 20 20 20 20 20 20 15 20 23 25 25 24 24 25 25 25 23 23 22 20 22 23 23 23 22 23 22 23 23 21 20 20 18 18 18 18 17 18 18 20 22
17 18 19 20 20 20 20 20 20 20 18 23 24 26 25 25 25 25 25 25 23 23 22 21 22 22 24 25 25 24 25 23 23 19 19 19 15 17 17 18 18 18 17 19 20
17 18 19 19 20 19 20 21 20 16 20 24 25 24 23 24 25 25 25 25 24 24 22 21 24 24 24 25 25 24 23 19 16 16 17 18 16 16 16 17 17 18 18 18 18
18 18 19 19 20 19 20 21 15 17 21 24 23 23 23 23 23 24 23 22 20 21 21 21 23 22 24 23 22 20 17 16 17 16 18 18 16 16 18 18 18 16 22 18 18
18 19 19 20 20 19 20 16 18 20 20 23 24 23 22 23 23 23 22 21 21 20 18 19 20 22 23 23 23 21 19 16 19 17 17 18 17 17 18 20 17 17 22 23 21
18 19 20 20 20 19 19 14 16 18 21 22 22 23 21 22 24 23 21 20 22 21 20 19 21 22 23 23 22 22 18 19 16 15 17 16 19 19 19 18 17 17 19 21 20
18 19 19 19 19 19 14 14 16 19 21 22 20 20 20 20 21 22 21 21 22 21 20 20 20 21 21 23 20 20 19 18 14 18 19 17 17 16 17 18 18 17 18 21 20
18 19 19 19 19 19 13 13 17 21 22 22 21 20 20 20 20 19 19 20 21 20 19 18 18 19 19 19 19 18 17 13 13 14 15 16 16 15 17 17 17 17 18 18 18
17 14 18 19 17 11 13 15 20 20 21 22 21 21 20 19 20 20 20 20 21 21 19 17 14 17 19 18 17 19 17 14 14 17 13 13 14 18 16 17 18 18 18 18 18
14 16 18 19 14 12 14 17 19 19 20 21 20 20 19 20 20 20 20 20 20 19 18 17 14 14 15 16 17 17 17 15 12 11 14 14 15 17 18 17 18 17 18 18 17
13 11 17 18 15 14 15 17 17 20 20 20 19 19 18 19 16 18 18 17 19 18 18 17 13 15 14 17 15 17 17 17 15 13 14 14 16 17 17 17 15 17 17 17 15
12 10 10 10 12 12 14 15 17 17 18 19 18 17 18 18 16 15 15 16 17 16 16 13 15 14 15 15 17 17 16 16 15 14 15 15 15 16 16 15 15 17 16 16 15
12 11 11 11 11 12 10 12 14 16 15 17 16 14 15 15 15 14 15 15 16 15 14 11 14 15 15 16 16 16 16 15 15 15 14 14 14 14 15 15 15 16 15 15 14
10 11 11 9 9 11 11 13 14 13 16 16 14 13 13 13 14 15 15 15 15 15 13 12 12 11 13 14 14 13 15 15 16 17 16 15 16 14 13 13 14 14 15 14 14

GFSSW_850_temp_291.txt.gz
Temp
16 16 16 17 17 18 18 18 19 19 19 19 20 20 20 21 22 22 22 22 22 21 21 21 21 21 21 21 21 22 24 24 25 25 26 24 25 23 22 23 21 22 21 21 21
16 16 16 17 17 18 18 18 18 19 19 19 19 20 20 21 22 22 22 22 21 21 21 21 21 21 21 21 21 23 23 24 24 25 26 26 26 26 25 24 22 22 21 22 21
16 16 16 17 17 18 18 18 19 19 19 19 19 20 21 21 22 22 22 22 21 21 21 21 21 22 21 21 21 21 24 24 25 24 24 26 26 25 25 27 25 23 20 20 21
15 16 16 17 17 18 19 19 19 19 19 19 19 20 21 21 23 22 22 22 21 21 21 21 21 21 22 23 21 24 23 23 25 24 23 25 25 25 24 27 25 25 23 20 20
15 16 16 17 18 18 19 19 19 19 18 19 19 20 21 22 22 22 22 22 22 22 22 22 22 22 24 22 21 23 24 23 24 23 23 23 25 25 25 25 24 24 22 20 19
16 16 16 17 18 19 19 19 19 19 19 19 19 20 21 22 22 22 22 22 22 23 23 23 23 23 22 23 23 23 23 24 23 24 23 24 24 22 26 25 22 22 21 20 22
15 16 16 17 18 19 19 19 19 19 19 19 20 20 21 22 22 22 22 22 23 23 23 23 23 23 22 23 22 22 24 25 24 24 25 23 24 25 25 23 23 21 20 19 21
15 16 17 18 19 19 19 19 19 19 19 20 20 20 22 22 22 22 22 23 23 23 23 22 23 22 22 22 22 23 23 26 26 25 23 24 28 24 20 22 23 22 20 20 19
16 16 17 18 19 19 19 20 20 19 19 20 20 20 22 22 23 23 23 23 23 23 23 22 22 22 21 23 24 23 25 25 25 23 24 24 26 23 19 21 23 21 20 19 18
16 16 17 18 19 19 20 19 20 19 19 20 20 20 22 22 23 23 23 23 23 23 23 22 21 23 22 24 24 24 24 24 24 24 22 21 22 21 19 20 20 20 20 20 19
16 16 17 18 19 19 20 20 20 20 19 21 21 21 22 23 23 23 23 23 23 23 24 21 25 25 24 23 23 23 23 23 24 23 23 22 22 22 20 21 21 22 22 21 18
16 17 17 18 19 19 20 19 19 19 19 20 21 22 23 23 23 23 23 23 23 23 22 23 25 24 22 22 22 22 23 24 23 23 24 24 23 23 22 21 21 20 20 21 21
16 17 17 18 19 19 19 19 19 19 18 21 22 23 23 23 23 23 23 23 23 23 23 24 25 22 23 22 24 23 25 24 25 23 22 23 24 23 23 22 21 20 19 19 19
16 17 17 18 19 19 19 19 20 20 20 22 22 23 23 24 23 24 24 24 23 24 22 24 23 23 24 25 25 25 24 24 24 24 25 21 24 23 22 23 23 20 19 18 17
16 17 17 18 19 19 19 20 20 19 21 23 23 23 23 24 24 23 24 24 24 24 24 24 24 24 25 24 24 25 24 23 23 24 23 23 25 24 22 23 23 21 19 17 16
16 17 18 18 19 19 19 20 20 20 20 23 23 23 24 23 23 23 23 24 23 23 23 24 22 24 24 24 23 22 24 22 22 23 24 21 22 24 24 22 22 22 19 17 15
17 17 18 18 19 19 19 20 20 21 21 23 23 23 23 24 24 24 24 24 24 23 23 24 24 24 23 25 24 24 24 24 23 23 23 20 22 23 23 23 22 21 18 16 15
17 18 18 19 19 19 19 20 19 20 21 22 22 22 24 23 24 23 23 23 21 23 22 23 23 24 24 24 24 22 23 24 22 22 23 20 23 24 23 22 21 19 17 16 15
17 18 18 19 19 19 19 19 20 19 21 21 22 22 22 22 23 23 23 23 22 22 23 23 23 23 22 22 23 23 23 20 21 19 22 22 22 23 22 23 22 22 18 16 15
17 18 17 18 18 18 18 17 18 18 20 21 22 21 22 22 23 23 21 21 21 21 21 22 22 22 22 22 21 22 21 22 22 21 21 22 21 24 23 23 23 22 20 17 16
17 17 17 17 18 18 18 17 17 18 19 21 21 21 21 22 21 21 21 21 21 20 20 21 22 22 22 22 22 22 22 18 20 20 22 22 23 21 22 22 23 22 20 18 17
15 17 16 17 17 12 17 16 17 19 19 21 21 21 21 20 21 21 21 20 17 20 22 18 20 21 20 19 18 20 20 20 22 21 18 19 22 21 20 21 20 21 19 17 17
13 15 16 16 17 16 15 17 18 19 19 20 20 20 20 19 20 20 20 17 17 19 20 19 19 20 20 20 20 20 19 17 17 17 19 21 22 21 20 21 20 19 19 16 16
12 15 15 16 14 15 16 17 18 17 18 17 19 19 19 19 18 19 19 17 16 16 16 17 17 20 21 21 20 20 19 18 19 19 20 21 22 22 22 20 21 20 17 16 15
12 11 10 14 13 13 14 15 17 17 16 16 18 18 19 18 18 19 18 18 17 16 16 18 20 18 18 18 18 19 19 19 18 19 19 21 19 21 22 20 19 18 16 15 15
11 11 10 10 9 13 12 14 16 15 16 18 18 16 17 18 19 19 18 18 19 17 16 15 18 17 18 17 18 18 19 18 18 18 18 19 19 21 19 16 16 16 16 16 15
11 11 11 8 11 13 13 13 14 13 15 14 15 16 17 15 14 14 14 14 16 17 16 16 16 16 18 16 16 17 18 19 20 19 19 19 21 19 18 17 16 15 15 15 14